User: anonymous   Login
Location: Noordwijk
(52.2400°N, 4.4500°E)
Time: 13:09:45
(UTC+00:00)
Language:

TIGRISAT - Orbit

View from above orbital plane
View from above orbital plane
View from above satellite
View from above satellite

Ground track
Ground track

The orbit data is extracted from the following two-line orbital elements,

1 40043U 14033AK  22341.46446245  .00001284  00000-0  19129-3 0  9999
2 40043  97.6540 161.4571 0057866 316.8087  42.8591 14.75412758455135
Epoch (UTC): 07 December 2022 11:08:49
Eccentricity: 0.0057866
inclination: 97.6540°
perigee height: 603 km
apogee height: 684 km
right ascension of ascending node: 161.4571°
argument of perigee: 316.8087°
revolutions per day: 14.75412758
mean anomaly at epoch: 42.8591°
orbit number at epoch: 45513

The dashed part of the orbit path shows where the satellite is in the earth's shadow,  

DLR